• In Netherlands
  • List of Countries
  • For 7 days
  • Water Temperature
  • Satellite Maps
  • Weather Map
  • Weather Widgets
  • user-avatar
    Login

    Hourly Weather Ali Bayramli

    Today, 20 November, Monday

    Time Temperature Precipitation Wind Pressure Humidity
    00:00 +14°C° 0 mm 2 mps 758 mmHg 75%
    01:00 +13°C° 0 mm 2 mps 758 mmHg 74%
    02:00 +13°C° 0 mm 2 mps 758 mmHg 72%
    03:00 +12°C° 0 mm 3 mps 758 mmHg 72%
    04:00 +12°C° 0 mm 3 mps 758 mmHg 71%
    05:00 +12°C° 0 mm 3 mps 758 mmHg 69%
    06:00 +11°C° 0 mm 3 mps 758 mmHg 68%
    07:00 +12°C° 0 mm 3 mps 758 mmHg 61%
    08:00 +14°C° 0 mm 3 mps 757 mmHg 54%
    09:00 +15°C° 0 mm 4 mps 757 mmHg 46%
    10:00 +17°C° 0 mm 4 mps 757 mmHg 41%
    11:00 +19°C° 0 mm 4 mps 757 mmHg 36%
    12:00 +20°C° 0 mm 4 mps 757 mmHg 31%
    13:00 +20°C° 0 mm 4 mps 757 mmHg 31%
    14:00 +21°C° 0 mm 4 mps 757 mmHg 30%
    15:00 +21°C° 0 mm 4 mps 756 mmHg 30%
    16:00 +20°C° 0 mm 3 mps 756 mmHg 33%
    17:00 +19°C° 0 mm 3 mps 756 mmHg 35%
    18:00 +18°C° 0 mm 3 mps 756 mmHg 38%
    19:00 +17°C° 0 mm 3 mps 756 mmHg 39%
    20:00 +17°C° 0 mm 3 mps 756 mmHg 40%
    21:00 +16°C° 0 mm 3 mps 756 mmHg 42%
    22:00 +16°C° 0 mm 3 mps 756 mmHg 43%
    23:00 +14°C° 0 mm 3 mps 756 mmHg 44%

    Tomorrow, 21 November, Tuesday

    Time Temperature Precipitation Wind Pressure Humidity
    00:00 +14°C° 0 mm 3 mps 755 mmHg 45%
    01:00 +14°C° 0 mm 3 mps 755 mmHg 45%
    02:00 +14°C° 0 mm 3 mps 755 mmHg 44%
    03:00 +13°C° 0 mm 3 mps 755 mmHg 44%
    04:00 +13°C° 0 mm 3 mps 754 mmHg 44%
    05:00 +13°C° 0 mm 4 mps 754 mmHg 44%
    06:00 +13°C° 0 mm 4 mps 754 mmHg 44%
    07:00 +14°C° 0 mm 4 mps 754 mmHg 41%
    08:00 +14°C° 0 mm 4 mps 754 mmHg 39%
    09:00 +15°C° 0 mm 4 mps 754 mmHg 37%
    10:00 +18°C° 0 mm 4 mps 753 mmHg 34%
    11:00 +19°C° 0 mm 4 mps 753 mmHg 32%
    12:00 +20°C° 0 mm 4 mps 752 mmHg 29%
    13:00 +21°C° 0 mm 4 mps 752 mmHg 29%
    14:00 +21°C° 0 mm 4 mps 751 mmHg 29%
    15:00 +21°C° 0 mm 4 mps 751 mmHg 29%
    16:00 +20°C° 0 mm 3 mps 751 mmHg 31%
    17:00 +19°C° 0 mm 3 mps 751 mmHg 33%
    18:00 +18°C° 0 mm 3 mps 750 mmHg 35%
    19:00 +17°C° 0 mm 3 mps 750 mmHg 36%
    20:00 +17°C° 0 mm 3 mps 750 mmHg 37%
    21:00 +16°C° 0 mm 3 mps 750 mmHg 39%
    22:00 +16°C° 0 mm 3 mps 749 mmHg 39%
    23:00 +16°C° 0 mm 3 mps 749 mmHg 40%

    Day after tomorrow, 22 November, Wednesday

    Time Temperature Precipitation Wind Pressure Humidity
    00:00 +14°C° 0 mm 3 mps 749 mmHg 40%
    01:00 +14°C° 0 mm 3 mps 749 mmHg 41%
    02:00 +14°C° 0 mm 3 mps 749 mmHg 41%
    03:00 +13°C° 0 mm 4 mps 748 mmHg 41%
    04:00 +13°C° 0 mm 4 mps 749 mmHg 42%
    05:00 +13°C° 0 mm 4 mps 749 mmHg 43%
    06:00 +12°C° 0 mm 5 mps 749 mmHg 44%
    07:00 +13°C° 0 mm 5 mps 750 mmHg 45%
    08:00 +14°C° 0 mm 5 mps 751 mmHg 46%
    09:00 +14°C° 0 mm 5 mps 751 mmHg 47%
    10:00 +15°C° 0 mm 5 mps 752 mmHg 48%
    11:00 +15°C° 0 mm 5 mps 752 mmHg 49%
    12:00 +16°C° 0 mm 5 mps 753 mmHg 50%
    13:00 +15°C° 0 mm 5 mps 753 mmHg 50%
    14:00 +15°C° 0 mm 5 mps 753 mmHg 50%
    15:00 +15°C° 0 mm 6 mps 754 mmHg 51%
    16:00 +14°C° 0.1 mm 6 mps 754 mmHg 54%
    17:00 +13°C° 0.1 mm 6 mps 755 mmHg 57%
    18:00 +11°C° 0.1 mm 6 mps 756 mmHg 59%
    19:00 +11°C° 0 mm 6 mps 756 mmHg 60%
    20:00 +11°C° 0 mm 6 mps 757 mmHg 60%
    21:00 +10°C° 0 mm 7 mps 757 mmHg 60%
    22:00 +10°C° 0.1 mm 6 mps 757 mmHg 62%
    23:00 +10°C° 0.1 mm 6 mps 758 mmHg 63%

    23 November, Thursday

    Time Temperature Precipitation Wind Pressure Humidity
    00:00 +9°C° 0.1 mm 6 mps 758 mmHg 65%
    01:00 +9°C° 0.2 mm 6 mps 758 mmHg 66%
    02:00 +9°C° 0.2 mm 6 mps 758 mmHg 67%
    03:00 +8°C° 0.2 mm 6 mps 758 mmHg 68%
    04:00 +8°C° 0.2 mm 6 mps 758 mmHg 69%
    05:00 +8°C° 0.2 mm 6 mps 758 mmHg 70%
    06:00 +8°C° 0.2 mm 5 mps 758 mmHg 70%
    07:00 +7°C° 0.3 mm 5 mps 759 mmHg 71%
    08:00 +7°C° 0.3 mm 4 mps 759 mmHg 72%
    09:00 +7°C° 0.3 mm 4 mps 759 mmHg 74%
    10:00 +8°C° 0.5 mm 3 mps 759 mmHg 74%
    11:00 +8°C° 0.5 mm 3 mps 759 mmHg 75%
    12:00 +8°C° 0.5 mm 3 mps 759 mmHg 76%
    13:00 +8°C° 0.1 mm 3 mps 759 mmHg 75%
    14:00 +8°C° 0.1 mm 2 mps 759 mmHg 74%
    15:00 +9°C° 0.1 mm 2 mps 759 mmHg 72%
    16:00 +8°C° 0 mm 2 mps 759 mmHg 74%
    17:00 +8°C° 0 mm 2 mps 760 mmHg 75%
    18:00 +8°C° 0 mm 2 mps 760 mmHg 77%
    19:00 +8°C° 0 mm 2 mps 760 mmHg 76%
    20:00 +7°C° 0 mm 2 mps 761 mmHg 76%
    21:00 +7°C° 0 mm 2 mps 761 mmHg 75%
    22:00 +7°C° 0 mm 2 mps 761 mmHg 72%
    23:00 +7°C° 0 mm 3 mps 761 mmHg 68%

    24 November, Friday

    Time Temperature Precipitation Wind Pressure Humidity
    00:00 +5°C° 0 mm 3 mps 761 mmHg 65%
    01:00 +5°C° 0 mm 3 mps 761 mmHg 61%
    02:00 +5°C° 0 mm 3 mps 761 mmHg 57%
    03:00 +5°C° 0 mm 3 mps 762 mmHg 53%
    04:00 +5°C° 0 mm 3 mps 762 mmHg 52%
    05:00 +4°C° 0 mm 3 mps 762 mmHg 51%
    06:00 +5°C° 0 mm 2 mps 763 mmHg 50%
    07:00 +5°C° 0 mm 3 mps 763 mmHg 47%
    08:00 +7°C° 0 mm 3 mps 764 mmHg 43%
    09:00 +7°C° 0 mm 3 mps 764 mmHg 40%
    10:00 +8°C° 0 mm 3 mps 764 mmHg 36%
    11:00 +8°C° 0 mm 4 mps 763 mmHg 32%
    12:00 +10°C° 0 mm 4 mps 763 mmHg 28%
    13:00 +10°C° 0 mm 4 mps 763 mmHg 28%
    14:00 +10°C° 0 mm 4 mps 763 mmHg 28%
    15:00 +10°C° 0 mm 4 mps 763 mmHg 28%
    16:00 +10°C° 0 mm 3 mps 763 mmHg 31%
    17:00 +9°C° 0 mm 3 mps 763 mmHg 33%
    18:00 +9°C° 0 mm 3 mps 764 mmHg 36%
    19:00 +8°C° 0 mm 3 mps 764 mmHg 37%
    20:00 +8°C° 0 mm 3 mps 764 mmHg 38%
    21:00 +8°C° 0 mm 3 mps 764 mmHg 39%
    22:00 +8°C° 0 mm 3 mps 764 mmHg 38%
    23:00 +7°C° 0 mm 3 mps 764 mmHg 38%

    25 November, Saturday

    Time Temperature Precipitation Wind Pressure Humidity
    00:00 +7°C° 0 mm 3 mps 764 mmHg 37%
    01:00 +7°C° 0 mm 3 mps 764 mmHg 36%
    02:00 +7°C° 0 mm 3 mps 764 mmHg 36%
    03:00 +6°C° 0 mm 4 mps 765 mmHg 35%
    04:00 +5°C° 0 mm 4 mps 765 mmHg 36%
    05:00 +5°C° 0 mm 4 mps 765 mmHg 37%
    06:00 +5°C° 0 mm 4 mps 765 mmHg 38%
    07:00 +5°C° 0 mm 5 mps 766 mmHg 37%
    08:00 +5°C° 0 mm 6 mps 766 mmHg 36%
    09:00 +5°C° 0 mm 7 mps 767 mmHg 35%
    10:00 +6°C° 0 mm 7 mps 766 mmHg 34%
    11:00 +7°C° 0 mm 8 mps 766 mmHg 33%
    12:00 +9°C° 0 mm 8 mps 766 mmHg 32%
    13:00 +9°C° 0.1 mm 8 mps 766 mmHg 35%
    14:00 +9°C° 0.1 mm 7 mps 767 mmHg 37%
    15:00 +8°C° 0.1 mm 7 mps 767 mmHg 40%
    16:00 +8°C° 0.1 mm 6 mps 767 mmHg 43%
    17:00 +7°C° 0.1 mm 5 mps 768 mmHg 45%
    18:00 +7°C° 0.1 mm 4 mps 769 mmHg 48%
    19:00 +6°C° 0 mm 4 mps 769 mmHg 51%
    20:00 +7°C° 0 mm 3 mps 769 mmHg 53%
    21:00 +5°C° 0 mm 3 mps 770 mmHg 56%
    22:00 +6°C° 0 mm 2 mps 770 mmHg 58%
    23:00 +6°C° 0 mm 2 mps 770 mmHg 59%
    Show more